SCP
0 0 0 0 0 0 0 0 0 0 0 0 0 0 0 0 0 0 0 0 0 0 0 0 0 0 0 0 0 0 0 0 0 0 0 0 0 0 0 0 0 0 0
0 0 0 0 0 0 0 0 0 0 0 0 0 0 0 0 0 0 0 0 0 0 0 0 0 0 0 0 0 0 0 0 0 0 0 0 0 0 0 0 0 0 0
0 0 0 0 0 0 0 0 0 0 0 0 0 0 0 0 0 0 0 0 0 0 0 0 0 0 0 0 0 0 0 0 0 0 0 0 0 0 0 0 0 0 0
0 0 0 0 0 0 0 0 0 0 0 0 0 0 0 0 0 0 0 0 0 0 0 0 0 0 0 0 0 0 0 0 0 0 0 0 0 0 0 0 0 0 0
0 0 0 0 0 0 0 0 0 0 0 0 0 0 0 0 0 0 0 0 0 0 0 0 0 0 0 0 0 0 0 0 0 0 0 0 0 0 0 0 0 0 0
0 0 0 0 0 0 0 0 0 0 0 0 0 0 0 0 0 0 0 0 0 0 0 0 0 0 0 0 0 0 0 0 0 0 0 0 0 0 0 0 0 0 0
0 0 0 0 0 0 0 0 0 0 0 0 0 0 0 0 0 0 0 0 0 0 0 0 0 0 0 0 0 0 0 0 0 1 1 1 1 1 1 1 1 1 0
0 0 0 0 0 0 0 0 0 0 0 0 0 0 0 0 0 0 0 0 0 0 0 0 0 0 0 0 0 0 0 0 0 0 1 1 1 1 1 1 1 1 1
0 0 0 0 0 0 0 0 0 0 0 0 0 0 0 0 0 0 0 0 0 0 0 0 0 0 0 0 0 0 0 0 0 0 0 0 0 1 1 1 1 1 1
0 0 0 0 0 0 0 0 0 0 0 0 0 0 0 0 0 0 0 0 0 0 0 0 0 0 0 0 0 0 0 0 0 0 0 0 0 0 0 1 1 1 1
0 0 0 0 0 0 0 0 0 0 0 0 0 0 0 0 0 0 0 0 0 0 0 0 0 0 0 0 0 0 0 0 0 0 0 0 0 0 0 0 0 0 1
0 0 0 0 0 0 0 0 0 0 0 0 0 0 0 0 0 0 0 0 0 0 0 0 0 0 0 0 0 0 0 0 0 0 0 0 0 0 0 0 0 0 0
0 0 0 0 0 0 0 0 0 0 0 0 0 0 0 0 0 0 0 0 0 0 0 0 0 0 0 0 0 0 0 0 0 0 0 0 0 0 0 0 0 0 0
0 0 0 0 0 0 0 0 0 0 0 0 0 0 0 0 0 0 0 0 0 0 0 0 0 0 0 0 0 0 0 0 0 0 0 0 0 0 0 0 0 0 0
0 0 0 0 0 0 0 0 0 0 0 0 0 0 0 0 0 0 0 0 0 0 0 0 0 0 0 0 0 0 0 0 0 0 0 0 0 0 0 0 0 0 0
0 0 0 0 0 0 0 0 0 0 0 0 0 0 0 0 0 0 0 0 0 0 0 0 0 0 0 0 0 0 0 0 0 0 0 0 0 0 0 0 0 0 0
0 0 0 0 0 0 0 0 0 0 0 0 0 0 0 0 0 0 0 0 0 0 0 0 0 0 0 0 0 0 0 0 0 0 0 0 0 0 0 0 0 0 0
0 0 0 0 0 0 0 0 0 0 0 0 0 0 0 0 0 0 0 0 0 0 0 0 0 0 0 0 0 0 0 0 0 0 0 0 0 0 0 0 0 0 0
0 0 0 0 0 0 0 0 0 0 0 0 0 0 0 0 0 0 0 0 0 0 0 0 0 0 0 0 0 0 0 0 0 0 0 0 0 0 0 0 0 0 0
0 0 0 0 0 0 0 0 0 0 0 0 0 0 0 0 0 0 0 0 0 0 0 0 0 0 0 0 0 0 0 0 0 0 0 0 0 0 0 0 0 0 0
0 0 0 0 0 0 0 0 0 0 0 0 0 0 0 0 0 0 0 0 0 0 0 0 0 0 0 0 0 0 0 0 0 0 0 0 0 0 0 0 0 0 0
0 0 0 0 0 0 0 0 0 0 0 0 0 0 0 0 0 0 0 0 0 0 0 0 0 0 0 0 0 0 0 0 0 0 0 0 0 0 0 0 0 0 0
0 0 0 0 0 0 0 0 0 0 0 0 0 0 0 0 0 0 0 0 0 0 0 0 0 0 0 0 0 0 0 0 0 0 0 0 0 0 0 0 0 0 0
0 0 0 0 0 0 0 0 0 0 0 0 0 0 0 0 0 0 0 0 0 0 0 0 0 0 0 0 0 0 0 0 0 0 0 0 0 0 0 0 0 0 0
0 0 0 0 0 0 0 0 0 0 0 0 0 0 0 0 0 0 0 0 0 0 0 0 0 0 0 0 0 0 0 0 0 0 0 0 0 0 0 0 0 0 0
0 0 0 0 0 0 0 0 0 0 0 0 0 0 0 0 0 0 0 0 0 0 0 0 0 0 0 0 0 0 0 0 0 0 0 0 0 0 0 0 0 0 0
Wind_Speed
4 6 8 8 7 9 9 8 6 3 2 3 3 4 5 5 4 5 7 7 7 8 8 8 8 7 9 11 10 9 9 9 5 5 8 9 11 15 12 9 11 13 13
6 8 9 9 9 9 8 8 8 7 2 2 2 2 1 2 3 3 4 6 7 8 8 10 10 9 9 11 11 9 8 8 6 6 5 7 7 9 11 12 13 15 11
6 7 8 9 9 10 9 8 9 9 8 5 3 3 3 3 3 3 3 4 6 7 8 10 11 10 9 10 12 10 12 12 9 10 10 9 8 4 4 7 10 11 11
5 5 7 7 8 8 7 9 9 11 10 9 8 7 5 3 3 3 3 5 6 6 7 8 9 9 8 10 11 11 11 13 12 10 11 13 8 8 7 6 7 9 12
5 5 5 6 6 7 7 8 9 11 10 10 9 8 7 4 3 4 6 7 6 7 8 8 7 7 7 9 11 11 12 11 13 12 10 11 12 14 13 15 11 7 9
5 4 4 5 6 7 7 8 10 10 10 10 10 9 9 8 8 8 7 6 5 5 9 9 8 8 7 8 9 10 11 11 13 12 11 11 10 9 12 14 14 14 11
6 5 4 4 5 6 7 7 8 9 9 9 9 9 8 8 7 6 6 6 5 5 9 8 8 8 8 8 8 9 9 9 11 12 11 11 12 11 13 15 15 15 12
6 6 5 4 3 5 6 6 7 7 8 8 7 7 7 5 5 5 5 5 5 5 8 9 9 9 10 10 9 7 8 8 9 11 12 10 10 10 12 14 15 17 14
7 6 5 4 3 4 5 5 7 7 7 7 7 7 7 7 6 6 6 6 6 7 10 10 10 10 10 10 10 7 9 9 8 9 10 9 8 8 9 10 11 15 18
6 6 5 3 3 4 5 6 7 7 6 7 7 6 6 6 6 6 8 8 8 9 10 11 11 12 12 12 11 10 10 10 9 8 10 10 8 8 7 7 8 9 13
7 6 4 3 5 5 6 6 6 6 6 6 6 6 6 6 6 6 7 7 7 8 9 10 11 11 12 12 12 12 11 11 11 10 11 13 12 10 8 8 8 8 9
6 5 4 5 6 6 6 6 5 5 5 5 5 6 6 6 7 7 8 8 8 8 9 9 10 11 11 11 12 12 12 12 12 12 12 13 12 13 11 9 10 10 9
5 5 6 6 6 5 5 5 5 5 5 5 5 6 6 7 7 8 9 10 10 11 11 11 12 12 12 12 12 10 12 11 10 10 11 12 13 14 12 13 12 11 11
7 7 6 6 5 4 4 4 4 5 5 5 6 6 6 7 7 8 9 10 11 12 13 13 13 13 14 13 11 14 13 11 10 9 10 11 12 14 15 13 13 13 14
7 7 6 5 4 4 3 4 4 5 5 5 5 6 6 7 8 9 10 10 11 13 13 14 14 14 13 13 19 17 14 11 11 10 10 10 14 17 16 16 16 15 14
7 7 6 5 3 3 3 3 4 5 4 5 5 6 7 8 9 10 10 11 12 12 13 13 14 15 14 24 28 21 13 12 14 15 14 14 13 15 25 27 26 23 19
7 6 5 4 3 2 2 3 3 4 4 5 5 6 8 9 9 11 11 11 11 12 12 13 13 15 17 26 27 26 17 14 14 15 16 16 16 22 17 23 27 23 25
6 5 4 2 1 2 2 3 3 4 5 5 6 7 8 9 9 10 11 10 10 11 12 13 13 14 17 26 27 29 17 13 14 15 16 16 16 17 22 21 21 21 20
5 4 3 2 2 3 2 3 4 5 5 6 7 7 8 10 10 11 11 10 11 12 11 12 13 14 15 23 27 28 13 12 14 14 15 18 17 26 32 23 22 25 24
4 3 2 3 3 3 3 4 5 5 6 6 7 7 8 9 10 11 10 9 10 11 13 13 13 14 13 22 28 28 12 13 13 12 13 21 25 30 33 23 21 24 23
4 4 4 3 3 3 4 5 5 5 6 6 6 7 7 8 9 8 8 11 12 12 12 13 12 12 14 20 26 28 14 13 14 13 13 14 30 34 35 31 21 24 27
4 4 3 3 3 4 4 5 5 6 6 6 7 7 8 8 10 9 9 10 11 12 11 12 12 9 10 17 21 27 26 25 17 14 13 17 32 35 34 26 25 32 29
4 3 2 2 3 4 3 4 6 6 6 7 7 8 8 7 7 8 10 10 9 9 10 11 11 11 10 12 23 26 28 29 18 15 25 30 32 29 22 24 30 26 15
3 2 1 2 3 4 4 5 6 6 7 7 8 7 7 8 7 7 7 9 9 10 11 11 12 12 11 10 10 12 15 20 18 15 20 26 25 22 23 22 17 13 13
2 0 1 2 4 5 6 6 6 6 7 7 7 7 7 7 8 8 7 10 8 11 15 12 12 13 13 16 29 23 16 16 17 20 13 12 14 14 13 14 14 13 14
1 1 2 3 4 5 6 7 6 6 7 7 7 6 6 7 7 9 11 16 17 22 23 22 20 16 21 29 30 30 28 29 29 20 12 13 14 15 15 16 16 15 14
Wind_Direction
24 18 14 7 13 17 19 18 17 335 197 175 192 208 226 229 230 231 235 235 234 229 227 239 241 228 233 240 232 230 237 244 226 245 264 260 251 253 252 246 249 250 246
27 17 12 14 20 22 19 22 21 16 16 190 176 178 206 238 245 260 258 247 241 236 235 238 243 237 239 243 240 229 238 248 212 223 249 270 266 250 244 242 243 247 247
44 21 13 15 21 25 20 27 26 28 25 30 73 66 52 22 8 334 304 291 279 268 259 255 253 249 240 245 245 234 235 249 242 226 236 252 259 284 261 239 242 243 243
56 37 24 22 21 17 18 29 33 36 32 36 52 58 54 30 351 334 332 328 323 313 304 291 280 271 260 253 253 245 240 243 252 244 233 237 244 253 274 252 232 233 242
86 63 42 34 27 21 26 29 37 39 33 39 48 55 51 34 7 6 7 1 351 353 352 343 332 312 293 278 270 265 256 250 249 250 246 244 245 243 255 271 269 248 235
117 96 63 48 36 28 30 32 39 36 29 34 38 44 42 32 26 17 10 1 351 352 360 354 350 342 333 320 306 292 280 271 265 262 256 250 244 241 247 258 261 264 260
145 128 100 69 51 42 37 39 46 39 30 35 36 35 37 37 33 19 8 3 353 345 349 348 345 343 337 330 325 317 305 293 285 281 277 271 265 259 255 259 264 263 261
163 156 147 119 78 58 49 49 52 45 34 35 33 32 34 34 26 18 9 1 349 335 339 340 338 336 335 333 328 320 312 307 300 295 291 288 285 280 274 271 274 274 268
176 168 158 136 102 68 57 59 61 49 36 32 31 30 26 26 19 12 6 358 349 343 341 337 335 334 332 330 327 320 315 311 305 302 298 294 292 289 286 284 281 284 287
182 173 164 148 99 75 68 62 62 53 38 33 30 29 22 19 13 9 2 352 343 339 337 336 335 333 331 330 328 323 319 320 318 316 313 309 305 299 293 289 288 284 286
182 176 167 125 92 78 69 64 56 47 35 26 23 22 14 10 8 2 351 341 335 334 334 334 333 331 329 329 326 322 325 325 322 321 319 316 314 310 306 300 294 288 286
169 152 128 102 91 84 74 64 50 40 26 18 19 17 14 11 7 357 348 343 339 337 335 334 331 329 327 325 320 320 327 322 319 319 319 318 318 313 310 307 302 297 290
137 115 101 98 96 89 77 62 43 27 15 15 17 19 17 10 2 353 348 347 345 342 341 339 334 330 327 322 314 318 318 311 309 311 313 314 316 313 311 308 303 300 298
133 117 105 99 92 82 71 56 32 16 13 15 20 21 9 359 352 349 347 345 343 341 340 336 332 330 328 321 322 324 316 309 304 303 305 309 311 311 310 309 307 308 305
127 119 116 107 92 78 62 45 26 13 11 15 21 10 356 352 351 348 343 341 339 337 333 331 329 328 325 325 326 323 322 318 315 311 304 304 304 302 311 315 312 309 305
128 124 120 114 101 85 62 39 20 6 8 18 12 358 356 354 349 342 339 336 333 330 329 327 325 324 324 322 324 329 327 327 324 321 319 313 308 313 317 312 308 306 302
134 127 122 118 114 96 62 31 7 5 13 15 3 358 355 349 342 338 335 330 327 325 323 321 320 318 317 321 327 331 330 324 321 319 317 316 316 319 312 310 309 304 299
126 127 136 139 115 63 30 11 13 15 12 5 356 353 349 342 336 332 327 323 322 322 319 318 316 315 316 324 327 326 326 317 313 312 309 309 312 313 314 311 309 305 300
138 149 157 138 94 53 23 24 20 11 5 356 349 345 341 335 331 326 321 318 320 318 314 315 314 312 314 321 324 325 316 311 309 307 308 312 310 311 315 313 307 304 300
145 142 118 89 66 34 29 35 15 3 351 340 334 331 328 324 320 314 312 314 315 312 313 312 310 307 308 315 323 323 313 311 310 309 308 310 311 312 313 309 303 299 299
130 103 83 64 39 26 34 22 1 341 324 320 319 318 315 312 310 310 312 313 314 313 310 308 306 302 306 316 320 321 321 316 316 316 315 311 313 313 312 309 301 298 303
106 94 80 46 21 21 23 359 331 312 310 311 311 309 307 307 318 312 309 310 311 311 311 310 309 304 306 314 318 322 324 324 320 316 314 312 314 314 314 312 308 311 313
112 95 70 18 358 359 360 327 307 308 312 311 307 303 302 299 302 307 312 314 312 312 312 311 312 313 312 313 320 323 325 325 323 314 315 317 318 319 316 313 315 318 313
113 90 34 344 324 319 315 300 300 307 309 304 300 299 303 308 309 308 309 310 311 311 311 313 314 314 313 315 318 320 322 324 322 316 317 321 321 319 316 317 317 315 312
118 106 319 303 299 303 303 301 301 303 301 297 295 300 303 308 312 309 304 306 297 306 314 314 314 315 317 319 324 325 323 325 322 325 322 322 323 321 321 319 317 317 319
142 312 312 303 298 300 297 295 293 295 299 306 308 306 307 306 306 308 310 307 310 315 317 318 318 316 316 320 323 325 326 331 332 331 325 324 322 320 322 322 320 320 323